Location: Unspecified
(0.0000°N, 0.0000°E)
Time: 18:25:56
(UTC+00:00)

Vanguard 3 - Pass Details

Date: 06 February 2023
Orbit: 509 x 3249 km, 33.3° (Epoch: 20 March)

Event Time Altitude Azimuth Distance (km) Brightness Sun altitude
Rises 06:21:24 0° 252° (WSW) 6,584 11.3 1.8°
Reaches altitude 10° 06:32:56 10° 216° (SW) 4,622 10.8 4.5°
Maximum altitude 06:34:13 10° 210° (SSW) 4,478 10.8 4.9°
Drops below altitude 10° 06:35:28 10° 204° (SSW) 4,365 10.8 5.2°
Sets 06:43:27 0° 163° (SSE) 4,451 11.4 7.1°
